,,Stat5,,Stat1,,Stat2,,Stat3,,Stat4,,Wind1,,Wind1,
time,status,PA1M_AVG,status,PR1M_SUM,status,RH1M_AVG,status,SR1M_AVG,status,TA1M_AVG,status,W1dAve1m,status,W1sAve1m,
2003-04-24, 00:00:00,VALID,918.354,VALID,0,VALID,99.9735,VALID,0.220751,VALID,19.435,VALID,42,VALID,0,
2003-04-24, 00:01:00,VALID,918.35,VALID,0,VALID,99.9621,VALID,0.220751,VALID,19.4348,VALID,42,VALID,0.0842483,
2003-04-24, 00:02:00,VALID,918.328,VALID,0,VALID,99.971,VALID,0.20377,VALID,19.4413,VALID,42,VALID,0.287418,
2003-04-24, 00:03:00,VALID,918.333,VALID,0,VALID,99.9532,VALID,0.220751,VALID,19.4485,VALID,34,VALID,0.636068,
2003-04-24, 00:04:00,VALID,918.342,VALID,0,VALID,99.9596,VALID,0.186789,VALID,19.4512,VALID,21,VALID,0.73457,
2003-04-24, 00:05:00,VALID,918.344,VALID,0,VALID,99.9647,VALID,0.237732,VALID,19.4477,VALID,17,VALID,0.468304,
2003-04-24, 00:06:00,VALID,918.331,VALID,0,VALID,99.9481,VALID,0.186789,VALID,19.4346,VALID,10,VALID,0.639623,
2003-04-24, 00:07:00,VALID,918.323,VALID,0,VALID,99.9507,VALID,0.237732,VALID,19.4189,VALID,10,VALID,0.257568,
2003-04-24, 00:08:00,VALID,918.323,VALID,0,VALID,99.9507,VALID,0.220751,VALID,19.4385,VALID,10,VALID,0.083676,
2003-04-24, 00:09:00,VALID,918.298,VALID,0,VALID,99.943,VALID,0.220751,VALID,19.4418,VALID,10,VALID,0.266859,
2003-04-24, 00:10:00,VALID,918.292,VALID,0,VALID,99.9367,VALID,0.254712,VALID,19.4082,VALID,36,VALID,0.508898,
2003-04-24, 00:11:00,VALID,918.265,VALID,0,VALID,99.9392,VALID,0.237732,VALID,19.4122,VALID,47,VALID,0.418708,
2003-04-24, 00:12:00,VALID,918.256,VALID,0,VALID,99.9367,VALID,0.237732,VALID,19.4025,VALID,44,VALID,0.24116,
2003-04-24, 00:13:00,VALID,918.247,VALID,0,VALID,99.9354,VALID,0.237732,VALID,19.4256,VALID,26,VALID,0.361637,
2003-04-24, 00:14:00,VALID,918.232,VALID,0,VALID,99.9341,VALID,0.237732,VALID,19.4017,VALID,356,VALID,0.522135,
2003-04-24, 00:15:00,VALID,918.206,VALID,0,VALID,99.9227,VALID,0.220751,VALID,19.399,VALID,356,VALID,0.789752,
2003-04-24, 00:16:00,VALID,918.176,VALID,0,VALID,99.9163,VALID,0.254712,VALID,19.4256,VALID,1,VALID,0.849159,
2003-04-24, 00:17:00,VALID,918.167,VALID,0,VALID,99.9201,VALID,0.254712,VALID,19.4281,VALID,357,VALID,0.746199,
2003-04-24, 00:18:00,VALID,918.149,VALID,0,VALID,99.9189,VALID,0.237732,VALID,19.4286,VALID,8,VALID,0.461589,
2003-04-24, 00:19:00,VALID,918.124,VALID,0,VALID,99.9214,VALID,0.237732,VALID,19.4348,VALID,9,VALID,0.368389,
2003-04-24, 00:20:00,VALID,918.091,VALID,0,VALID,99.929,VALID,0.220751,VALID,19.4447,VALID,8,VALID,0.289679,
2003-04-24, 00:21:00,VALID,918.07,VALID,0,VALID,99.9201,VALID,0.271693,VALID,19.4604,VALID,22,VALID,0.386102,
2003-04-24, 00:22:00,VALID,918.054,VALID,0,VALID,99.9227,VALID,0.237732,VALID,19.4607,VALID,359,VALID,0.367898,
2003-04-24, 00:23:00,VALID,918.041,VALID,0,VALID,99.9227,VALID,0.254712,VALID,19.4385,VALID,336,VALID,0.416174,
2003-04-24, 00:24:00,VALID,918.015,VALID,0,VALID,99.9138,VALID,0.169808,VALID,19.4293,VALID,358,VALID,0.451686,
2003-04-24, 00:25:00,VALID,918.003,VALID,0,VALID,99.9189,VALID,0.152827,VALID,19.43,VALID,11,VALID,0.219161,
2003-04-24, 00:26:00,VALID,917.985,VALID,0,VALID,99.9087,VALID,0.152827,VALID,19.4522,VALID,11,VALID,0,
2003-04-24, 00:27:00,VALID,917.977,VALID,0,VALID,99.9125,VALID,0.135847,VALID,19.4591,VALID,17,VALID,0.332031,
2003-04-24, 00:28:00,VALID,917.96,VALID,0,VALID,99.9176,VALID,0.118866,VALID,19.4688,VALID,38,VALID,0.50918,
2003-04-24, 00:29:00,VALID,917.957,VALID,0,VALID,99.91,VALID,0.135847,VALID,19.4654,VALID,30,VALID,0.459329,
2003-04-24, 00:30:00,VALID,917.965,VALID,0,VALID,99.9189,VALID,0.0849042,VALID,19.4788,VALID,26,VALID,0.485814,
2003-04-24, 00:31:00,VALID,917.952,VALID,0,VALID,99.9125,VALID,0.0849042,VALID,19.4654,VALID,32,VALID,0.572163,
2003-04-24, 00:32:00,VALID,917.971,VALID,0,VALID,99.896,VALID,0.135847,VALID,19.4233,VALID,36,VALID,0.664274,
2003-04-24, 00:33:00,VALID,917.969,VALID,0,VALID,99.8871,VALID,0.118866,VALID,19.4136,VALID,27,VALID,0.894231,
2003-04-24, 00:34:00,VALID,917.978,VALID,0,VALID,99.8909,VALID,0.118866,VALID,19.4042,VALID,21,VALID,0.897569,
2003-04-24, 00:35:00,VALID,917.979,VALID,0,VALID,99.8947,VALID,0.101885,VALID,19.4042,VALID,17,VALID,0.970189,
2003-04-24, 00:36:00,VALID,917.974,VALID,0,VALID,99.8909,VALID,0.135847,VALID,19.4005,VALID,19,VALID,1.07175,
2003-04-24, 00:37:00,VALID,917.98,VALID,0,VALID,99.8934,VALID,0.101885,VALID,19.3875,VALID,40,VALID,1.09195,
2003-04-24, 00:38:00,VALID,917.981,VALID,0,VALID,99.8795,VALID,0.118866,VALID,19.3975,VALID,20,VALID,1.05431,
2003-04-24, 00:39:00,VALID,917.981,VALID,0,VALID,99.8985,VALID,0.237732,VALID,19.4094,VALID,10,VALID,0.993389,
2003-04-24, 00:40:00,VALID,917.99,VALID,0,VALID,99.9011,VALID,0.186789,VALID,19.4059,VALID,12,VALID,1.05369,
2003-04-24, 00:41:00,VALID,918.002,VALID,0,VALID,99.8947,VALID,0.237732,VALID,19.441,VALID,12,VALID,0.937078,
2003-04-24, 00:42:00,VALID,918.004,VALID,0,VALID,99.8884,VALID,0.288674,VALID,19.4311,VALID,13,VALID,1.02364,
2003-04-24, 00:43:00,VALID,917.992,VALID,0,VALID,99.882,VALID,0.186789,VALID,19.4475,VALID,11,VALID,0.679688,
2003-04-24, 00:44:00,VALID,917.984,VALID,0,VALID,99.8706,VALID,0.237732,VALID,19.4572,VALID,10,VALID,0.543186,
2003-04-24, 00:45:00,VALID,917.975,VALID,0,VALID,99.8655,VALID,0.237732,VALID,19.4766,VALID,10,VALID,0.469531,
2003-04-24, 00:46:00,VALID,917.963,VALID,0,VALID,99.8591,VALID,0.20377,VALID,19.4865,VALID,9,VALID,0.604941,
2003-04-24, 00:47:00,VALID,917.929,VALID,0,VALID,99.8362,VALID,0.20377,VALID,19.5126,VALID,10,VALID,0.44972,
2003-04-24, 00:48:00,VALID,917.919,VALID,0,VALID,99.8235,VALID,0.237732,VALID,19.5062,VALID,10,VALID,0.466283,
2003-04-24, 00:49:00,VALID,917.888,VALID,0,VALID,99.7955,VALID,0.237732,VALID,19.5052,VALID,9,VALID,0.420922,
2003-04-24, 00:50:00,VALID,917.879,VALID,0,VALID,99.7574,VALID,0.220751,VALID,19.4932,VALID,350,VALID,0.636418,
2003-04-24, 00:51:00,VALID,917.864,VALID,0,VALID,99.723,VALID,0.152827,VALID,19.4962,VALID,351,VALID,0.536318,
2003-04-24, 00:52:00,VALID,917.844,VALID,0,VALID,99.6849,VALID,0.20377,VALID,19.4865,VALID,360,VALID,0.397656,
2003-04-24, 00:53:00,VALID,917.828,VALID,0,VALID,99.6429,VALID,0.152827,VALID,19.5124,VALID,347,VALID,0.288061,
2003-04-24, 00:54:00,VALID,917.828,VALID,0,VALID,99.6289,VALID,0.237732,VALID,19.5273,VALID,248,VALID,0.427632,
2003-04-24, 00:55:00,VALID,917.817,VALID,0,VALID,99.6226,VALID,0.305655,VALID,19.5435,VALID,231,VALID,0.28125,
2003-04-24, 00:56:00,VALID,917.804,VALID,0,VALID,99.5997,VALID,0.305655,VALID,19.5365,VALID,221,VALID,0.183293,
2003-04-24, 00:57:00,VALID,917.79,VALID,0,VALID,99.5959,VALID,0.356597,VALID,19.5462,VALID,167,VALID,0.283088,
2003-04-24, 00:58:00,VALID,917.76,VALID,0,VALID,99.5221,VALID,0.305655,VALID,19.5142,VALID,79,VALID,0.569111,
2003-04-24, 00:59:00,VALID,917.745,VALID,0,VALID,99.4115,VALID,0.237732,VALID,19.501,VALID,81,VALID,0.722039,
2003-04-24, 01:00:00,VALID,917.735,VALID,0,VALID,99.3339,VALID,0.322636,VALID,19.501,VALID,96,VALID,0.586806,
2003-04-24, 01:01:00,VALID,917.726,VALID,0,VALID,99.2831,VALID,0.271693,VALID,19.4876,VALID,100,VALID,0.341639,
2003-04-24, 01:02:00,VALID,917.723,VALID,0,VALID,99.2246,VALID,0.305655,VALID,19.5005,VALID,100,VALID,0.290234,
2003-04-24, 01:03:00,VALID,917.705,VALID,0,VALID,99.1597,VALID,0.288674,VALID,19.5142,VALID,100,VALID,0.284334,
2003-04-24, 01:04:00,VALID,917.699,VALID,0,VALID,99.1737,VALID,0.322636,VALID,19.5174,VALID,100,VALID,0.128167,
2003-04-24, 01:05:00,VALID,917.702,VALID,0,VALID,99.147,VALID,0.254712,VALID,19.5437,VALID,100,VALID,0,
2003-04-24, 01:06:00,VALID,917.686,VALID,0,VALID,99.1012,VALID,0.271693,VALID,19.5631,VALID,100,VALID,0,
2003-04-24, 01:07:00,VALID,917.685,VALID,0,VALID,99.0809,VALID,0.305655,VALID,19.5594,VALID,100,VALID,0,
2003-04-24, 01:08:00,VALID,917.671,VALID,0,VALID,99.0707,VALID,0.237732,VALID,19.5631,VALID,86,VALID,0.234164,
2003-04-24, 01:09:00,VALID,917.65,VALID,0,VALID,99.0656,VALID,0.186789,VALID,19.5577,VALID,34,VALID,0.649038,
2003-04-24, 01:10:00,VALID,917.635,VALID,0,VALID,99.0173,VALID,0.169808,VALID,19.5542,VALID,26,VALID,0.661529,
2003-04-24, 01:11:00,VALID,917.621,VALID,0,VALID,98.9601,VALID,0.186789,VALID,19.532,VALID,26,VALID,0.488176,
2003-04-24, 01:12:00,VALID,917.617,VALID,0,VALID,98.9181,VALID,0.186789,VALID,19.5087,VALID,21,VALID,0.442835,
2003-04-24, 01:13:00,VALID,917.629,VALID,0,VALID,98.8736,VALID,0.186789,VALID,19.4833,VALID,10,VALID,0.353516,
2003-04-24, 01:14:00,VALID,917.622,VALID,0,VALID,98.8494,VALID,0.169808,VALID,19.4607,VALID,359,VALID,0.359375,
2003-04-24, 01:15:00,VALID,917.596,VALID,0,VALID,98.8609,VALID,0.237732,VALID,19.4569,VALID,325,VALID,0.345954,
2003-04-24, 01:16:00,VALID,917.573,VALID,0,VALID,98.9105,VALID,0.186789,VALID,19.4569,VALID,313,VALID,0.450781,
2003-04-24, 01:17:00,VALID,917.547,VALID,0,VALID,98.941,VALID,0.135847,VALID,19.4634,VALID,296,VALID,0.359375,
2003-04-24, 01:18:00,VALID,917.518,VALID,0,VALID,98.9703,VALID,0.20377,VALID,19.4768,VALID,353,VALID,0.325452,
2003-04-24, 01:19:00,VALID,917.498,VALID,0,VALID,98.9563,VALID,0.20377,VALID,19.4542,VALID,346,VALID,0.361275,
2003-04-24, 01:20:00,VALID,917.484,VALID,0,VALID,98.9054,VALID,0.152827,VALID,19.4383,VALID,354,VALID,0.135742,
2003-04-24, 01:21:00,VALID,917.476,VALID,0,VALID,98.8673,VALID,0.237732,VALID,19.3958,VALID,354,VALID,0.217231,
2003-04-24, 01:22:00,VALID,917.463,VALID,0,VALID,98.8431,VALID,0.186789,VALID,19.3803,VALID,355,VALID,0.336149,
2003-04-24, 01:23:00,VALID,917.449,VALID,0,VALID,98.8151,VALID,0.237732,VALID,19.3443,VALID,356,VALID,0.277344,
2003-04-24, 01:24:00,VALID,917.428,VALID,0,VALID,98.8494,VALID,0.186789,VALID,19.3154,VALID,356,VALID,0.0160985,
2003-04-24, 01:25:00,VALID,917.389,VALID,0,VALID,98.8952,VALID,0.186789,VALID,19.3092,VALID,360,VALID,0.261719,
2003-04-24, 01:26:00,VALID,917.362,VALID,0,VALID,98.9461,VALID,0.135847,VALID,19.29,VALID,360,VALID,0.289648,
2003-04-24, 01:27:00,VALID,917.335,VALID,0,VALID,98.9906,VALID,0.169808,VALID,19.2933,VALID,352,VALID,0.312706,
2003-04-24, 01:28:00,VALID,917.321,VALID,0,VALID,99.0059,VALID,0.135847,VALID,19.293,VALID,338,VALID,0.068051,
2003-04-24, 01:29:00,VALID,917.322,VALID,0,VALID,99.0478,VALID,0.169808,VALID,19.299,VALID,338,VALID,0.020633,
2003-04-24, 01:30:00,VALID,917.295,VALID,0,VALID,99.0656,VALID,0.186789,VALID,19.2992,VALID,338,VALID,0,
2003-04-24, 01:31:00,VALID,917.288,VALID,0,VALID,99.0555,VALID,0.169808,VALID,19.2925,VALID,338,VALID,0,
2003-04-24, 01:32:00,VALID,917.272,VALID,0,VALID,98.9779,VALID,0.20377,VALID,19.2736,VALID,9,VALID,0.530222,
2003-04-24, 01:33:00,VALID,917.235,VALID,0,VALID,98.9423,VALID,0.186789,VALID,19.2478,VALID,25,VALID,0.851758,
2003-04-24, 01:34:00,VALID,917.192,VALID,0,VALID,98.9639,VALID,0.152827,VALID,19.2124,VALID,26,VALID,1.09196,
2003-04-24, 01:35:00,VALID,917.156,VALID,0,VALID,98.9957,VALID,0.169808,VALID,19.1926,VALID,25,VALID,1.05933,
2003-04-24, 01:36:00,VALID,917.129,VALID,0,VALID,99.0097,VALID,0.20377,VALID,19.1993,VALID,31,VALID,0.900905,
2003-04-24, 01:37:00,VALID,917.094,VALID,0,VALID,98.9308,VALID,0.169808,VALID,19.1928,VALID,32,VALID,0.627387,
2003-04-24, 01:38:00,VALID,917.067,VALID,0,VALID,98.8749,VALID,0.118866,VALID,19.1709,VALID,30,VALID,0.593099,
2003-04-24, 01:39:00,VALID,917.043,VALID,0,VALID,98.852,VALID,0.169808,VALID,19.1605,VALID,30,VALID,0.516859,
2003-04-24, 01:40:01,VALID,917.035,VALID,0,VALID,98.8507,VALID,0.169808,VALID,19.1473,VALID,40,VALID,0.641964,
2003-04-24, 01:41:00,VALID,917.008,VALID,0,VALID,98.8037,VALID,0.118866,VALID,19.1478,VALID,36,VALID,0.645433,
2003-04-24, 01:42:00,VALID,917.002,VALID,0,VALID,98.7083,VALID,0.169808,VALID,19.1378,VALID,28,VALID,0.701823,
2003-04-24, 01:43:00,VALID,916.986,VALID,0,VALID,98.59,VALID,0.135847,VALID,19.1025,VALID,28,VALID,0.644637,
2003-04-24, 01:44:00,VALID,916.975,VALID,0,VALID,98.5697,VALID,0.152827,VALID,19.0699,VALID,23,VALID,0.5956,
2003-04-24, 01:45:01,VALID,916.974,VALID,0,VALID,98.6206,VALID,0.0849042,VALID,19.063,VALID,17,VALID,0.589638,
2003-04-24, 01:46:00,VALID,916.974,VALID,0,VALID,98.6574,VALID,0.101885,VALID,19.0833,VALID,8,VALID,0.168826,
2003-04-24, 01:47:01,VALID,916.995,VALID,0,VALID,98.7325,VALID,0.186789,VALID,19.0861,VALID,358,VALID,0.182091,
2003-04-24, 01:48:00,VALID,917.009,VALID,0,VALID,98.8482,VALID,0.118866,VALID,19.1381,VALID,358,VALID,0.13762,
2003-04-24, 01:49:01,VALID,917.026,VALID,0,VALID,98.8851,VALID,0.118866,VALID,19.1836,VALID,358,VALID,0.0857264,
2003-04-24, 01:50:00,VALID,917.013,VALID,0,VALID,98.8584,VALID,0.0849042,VALID,19.1836,VALID,358,VALID,0.175977,
2003-04-24, 01:51:00,VALID,917.008,VALID,0,VALID,98.8151,VALID,0.186789,VALID,19.1963,VALID,347,VALID,0.457261,
2003-04-24, 01:52:00,VALID,917.003,VALID,0,VALID,98.8609,VALID,0.0679233,VALID,19.2291,VALID,342,VALID,0.348633,
2003-04-24, 01:53:00,VALID,916.991,VALID,0,VALID,98.7134,VALID,0.0849042,VALID,19.2224,VALID,347,VALID,0.245393,
2003-04-24, 01:54:00,VALID,916.975,VALID,0,VALID,98.693,VALID,0.0849042,VALID,19.2152,VALID,347,VALID,0.0900493,
2003-04-24, 01:55:00,VALID,916.96,VALID,0,VALID,98.5951,VALID,0.0849042,VALID,19.196,VALID,347,VALID,0.122738,
2003-04-24, 01:56:00,VALID,916.941,VALID,0,VALID,98.5481,VALID,0.152827,VALID,19.1833,VALID,321,VALID,0.345703,
2003-04-24, 01:57:00,VALID,916.949,VALID,0,VALID,98.4387,VALID,0.135847,VALID,19.1739,VALID,179,VALID,0.620703,
2003-04-24, 01:58:01,VALID,916.961,VALID,0,VALID,98.4082,VALID,0.135847,VALID,19.1547,VALID,179,VALID,0.619191,
2003-04-24, 01:59:00,VALID,916.96,VALID,0,VALID,98.3777,VALID,0.135847,VALID,19.1154,VALID,179,VALID,0.430921,
2003-04-24, 02:00:01,VALID,916.961,VALID,0,VALID,98.3828,VALID,0.118866,VALID,19.0995,VALID,179,VALID,0.194912,
2003-04-24, 02:01:00,VALID,916.959,VALID,0,VALID,98.3344,VALID,0.135847,VALID,19.0769,VALID,179,VALID,0.0122196,
2003-04-24, 02:02:01,VALID,916.954,VALID,0,VALID,98.1704,VALID,0.0849042,VALID,19.0025,VALID,179,VALID,0.00844595,
2003-04-24, 02:03:00,VALID,916.967,VALID,0,VALID,98.1463,VALID,0.0849042,VALID,18.954,VALID,177,VALID,0.0911458,
2003-04-24, 02:04:00,VALID,916.957,VALID,0,VALID,98.1666,VALID,0.0849042,VALID,18.9155,VALID,176,VALID,0.00173611,
2003-04-24, 02:05:00,VALID,916.955,VALID,0,VALID,98.2378,VALID,0.152827,VALID,18.8764,VALID,176,VALID,0.0279948,
2003-04-24, 02:06:00,VALID,916.947,VALID,0,VALID,98.4069,VALID,0.135847,VALID,18.8543,VALID,176,VALID,0,
2003-04-24, 02:07:00,VALID,916.927,VALID,0,VALID,98.6333,VALID,0.118866,VALID,18.8605,VALID,176,VALID,0.168708,
2003-04-24, 02:08:00,VALID,916.903,VALID,0,VALID,98.8227,VALID,0.169808,VALID,18.8988,VALID,176,VALID,0.359375,
2003-04-24, 02:09:01,VALID,916.897,VALID,0,VALID,98.8533,VALID,0.152827,VALID,18.8861,VALID,176,VALID,0.51398,
2003-04-24, 02:10:00,VALID,916.872,VALID,0,VALID,99.0059,VALID,0.118866,VALID,18.9182,VALID,176,VALID,0.400534,
2003-04-24, 02:11:00,VALID,916.86,VALID,0,VALID,99.0936,VALID,0.135847,VALID,18.9506,VALID,176,VALID,0.282452,
2003-04-24, 02:12:00,VALID,916.849,VALID,0,VALID,99.0834,VALID,0.169808,VALID,18.9635,VALID,176,VALID,0.0342061,
2003-04-24, 02:13:00,VALID,916.855,VALID,0,VALID,98.9855,VALID,0.169808,VALID,18.9379,VALID,176,VALID,0,
2003-04-24, 02:14:00,VALID,916.855,VALID,0,VALID,98.8469,VALID,0.20377,VALID,18.8988,VALID,176,VALID,0,
2003-04-24, 02:15:00,VALID,916.863,VALID,0,VALID,98.7617,VALID,0.20377,VALID,18.8342,VALID,176,VALID,0,
2003-04-24, 02:16:01,VALID,916.855,VALID,0,VALID,98.5672,VALID,0.220751,VALID,18.773,VALID,109,VALID,0.235008,
2003-04-24, 02:17:00,VALID,916.853,VALID,0,VALID,98.5761,VALID,0.169808,VALID,18.7247,VALID,78,VALID,0.311498,
2003-04-24, 02:18:00,VALID,916.854,VALID,0,VALID,98.6015,VALID,0.152827,VALID,18.6859,VALID,77,VALID,0.442325,
2003-04-24, 02:19:01,VALID,916.841,VALID,0,VALID,98.7121,VALID,0.186789,VALID,18.6598,VALID,37,VALID,0.370793,
2003-04-24, 02:20:00,VALID,916.85,VALID,0,VALID,98.66,VALID,0.169808,VALID,18.6434,VALID,40,VALID,0.191201,
2003-04-24, 02:21:00,VALID,916.831,VALID,0,VALID,98.5227,VALID,0.152827,VALID,18.5698,VALID,40,VALID,0.104601,
2003-04-24, 02:22:00,VALID,916.821,VALID,0,VALID,98.5557,VALID,0.152827,VALID,18.5407,VALID,40,VALID,0.00760135,
2003-04-24, 02:23:00,VALID,916.796,VALID,0,VALID,98.632,VALID,0.152827,VALID,18.5151,VALID,40,VALID,0,
2003-04-24, 02:24:00,VALID,916.786,VALID,0,VALID,98.6841,VALID,0.152827,VALID,18.4957,VALID,40,VALID,0.0372122,
2003-04-24, 02:25:00,VALID,916.749,VALID,0,VALID,98.7554,VALID,0.135847,VALID,18.4954,VALID,40,VALID,0.372466,
2003-04-24, 02:26:00,VALID,916.745,VALID,0,VALID,98.7604,VALID,0.186789,VALID,18.4763,VALID,40,VALID,0.433494,
2003-04-24, 02:27:01,VALID,916.72,VALID,0,VALID,98.9436,VALID,0.186789,VALID,18.4989,VALID,40,VALID,0.180689,
2003-04-24, 02:28:00,VALID,916.722,VALID,0,VALID,99.0326,VALID,0.135847,VALID,18.5118,VALID,40,VALID,0.00205592,
2003-04-24, 02:29:01,VALID,916.725,VALID,0,VALID,99.0745,VALID,0.169808,VALID,18.5312,VALID,40,VALID,0,
2003-04-24, 02:30:00,VALID,916.707,VALID,0,VALID,99.0771,VALID,0.186789,VALID,18.5051,VALID,40,VALID,0,
2003-04-24, 02:31:01,VALID,916.688,VALID,0,VALID,99.1712,VALID,0.135847,VALID,18.5211,VALID,40,VALID,0,
2003-04-24, 02:32:01,VALID,916.689,VALID,0,VALID,99.3428,VALID,0.135847,VALID,18.577,VALID,40,VALID,0,
2003-04-24, 02:33:00,VALID,916.688,VALID,0,VALID,99.4636,VALID,0.186789,VALID,18.625,VALID,40,VALID,0,
2003-04-24, 02:34:00,VALID,916.689,VALID,0,VALID,99.5819,VALID,0.101885,VALID,18.6938,VALID,40,VALID,0,
2003-04-24, 02:35:01,VALID,916.705,VALID,0,VALID,99.5476,VALID,0.118866,VALID,18.7125,VALID,40,VALID,0,
2003-04-24, 02:36:00,VALID,916.725,VALID,0,VALID,99.4942,VALID,0.101885,VALID,18.706,VALID,40,VALID,0,
2003-04-24, 02:37:00,VALID,916.734,VALID,0,VALID,99.4916,VALID,0.186789,VALID,18.6993,VALID,40,VALID,0,
2003-04-24, 02:38:00,VALID,916.741,VALID,0,VALID,99.5539,VALID,0.118866,VALID,18.7252,VALID,40,VALID,0,
2003-04-24, 02:39:01,VALID,916.732,VALID,0,VALID,99.62,VALID,0.135847,VALID,18.7705,VALID,40,VALID,0,
2003-04-24, 02:40:00,VALID,916.736,VALID,0,VALID,99.6455,VALID,0.186789,VALID,18.7933,VALID,40,VALID,0,
2003-04-24, 02:41:00,VALID,916.725,VALID,0,VALID,99.6506,VALID,0.152827,VALID,18.7998,VALID,40,VALID,0,
2003-04-24, 02:42:01,VALID,916.739,VALID,0,VALID,99.6391,VALID,0.152827,VALID,18.8028,VALID,40,VALID,0.114366,
2003-04-24, 02:43:00,VALID,916.738,VALID,0,VALID,99.6099,VALID,0.152827,VALID,18.806,VALID,40,VALID,0,
2003-04-24, 02:44:01,VALID,916.734,VALID,0,VALID,99.587,VALID,0.186789,VALID,18.7896,VALID,40,VALID,0,
2003-04-24, 02:45:01,VALID,916.715,VALID,0,VALID,99.5959,VALID,0.186789,VALID,18.7901,VALID,40,VALID,0,
2003-04-24, 02:46:00,VALID,916.709,VALID,0,VALID,99.601,VALID,0.118866,VALID,18.7839,VALID,40,VALID,0,
2003-04-24, 02:47:00,VALID,916.699,VALID,0,VALID,99.634,VALID,0.135847,VALID,18.8291,VALID,40,VALID,0,
2003-04-24, 02:48:01,VALID,916.687,VALID,0,VALID,99.6798,VALID,0.152827,VALID,18.8779,VALID,40,VALID,0,
2003-04-24, 02:49:01,VALID,916.693,VALID,0,VALID,99.6938,VALID,0.135847,VALID,18.8839,VALID,40,VALID,0,
2003-04-24, 02:50:00,VALID,916.682,VALID,0,VALID,99.6696,VALID,0.135847,VALID,18.891,VALID,40,VALID,0,
2003-04-24, 02:51:00,VALID,916.678,VALID,0,VALID,99.6569,VALID,0.152827,VALID,18.8649,VALID,40,VALID,0,
2003-04-24, 02:52:01,VALID,916.684,VALID,0,VALID,99.6493,VALID,0.20377,VALID,18.8619,VALID,40,VALID,0,
2003-04-24, 02:53:00,VALID,916.694,VALID,0,VALID,99.6455,VALID,0.118866,VALID,18.8289,VALID,40,VALID,0,
2003-04-24, 02:54:00,VALID,916.697,VALID,0,VALID,99.6239,VALID,0.254712,VALID,18.8314,VALID,40,VALID,0,
2003-04-24, 02:55:00,VALID,916.714,VALID,0,VALID,99.4484,VALID,0.254712,VALID,18.7377,VALID,40,VALID,0.0459821,
2003-04-24, 02:56:00,VALID,916.727,VALID,0,VALID,99.2958,VALID,0.220751,VALID,18.6012,VALID,40,VALID,0.0749578,
2003-04-24, 02:57:00,VALID,916.721,VALID,0,VALID,99.3784,VALID,0.305655,VALID,18.5592,VALID,40,VALID,0.311472,
2003-04-24, 02:58:00,VALID,916.73,VALID,0,VALID,99.4064,VALID,0.288674,VALID,18.5497,VALID,26,VALID,0.484158,
2003-04-24, 02:59:01,VALID,916.724,VALID,0,VALID,99.6048,VALID,0.271693,VALID,18.585,VALID,17,VALID,0.474609,
2003-04-24, 03:00:00,VALID,916.716,VALID,0,VALID,99.6328,VALID,0.254712,VALID,18.63,VALID,17,VALID,0.400699,
2003-04-24, 03:01:01,VALID,916.723,VALID,0,VALID,99.6544,VALID,0.305655,VALID,18.646,VALID,17,VALID,0.323661,
2003-04-24, 03:02:01,VALID,916.721,VALID,0,VALID,99.6913,VALID,0.288674,VALID,18.6818,VALID,37,VALID,0.489183,
2003-04-24, 03:03:00,VALID,916.726,VALID,0,VALID,99.718,VALID,0.237732,VALID,18.727,VALID,32,VALID,0.371745,
2003-04-24, 03:04:01,VALID,916.712,VALID,0,VALID,99.7129,VALID,0.271693,VALID,18.7072,VALID,18,VALID,0.326647,
2003-04-24, 03:05:01,VALID,916.714,VALID,0,VALID,99.6976,VALID,0.254712,VALID,18.7046,VALID,14,VALID,0.318668,
2003-04-24, 03:06:01,VALID,916.722,VALID,0,VALID,99.7675,VALID,0.271693,VALID,18.7887,VALID,358,VALID,0.629934,
2003-04-24, 03:07:00,VALID,916.698,VALID,0,VALID,99.7981,VALID,0.305655,VALID,18.8113,VALID,359,VALID,0.55907,
2003-04-24, 03:08:01,VALID,916.689,VALID,0,VALID,99.7803,VALID,0.271693,VALID,18.8048,VALID,5,VALID,0.850761,
2003-04-24, 03:09:00,VALID,916.686,VALID,0,VALID,99.807,VALID,0.305655,VALID,18.8275,VALID,10,VALID,0.79387,
2003-04-24, 03:10:01,VALID,916.697,VALID,0,VALID,99.8426,VALID,0.237732,VALID,18.8757,VALID,13,VALID,0.496622,
2003-04-24, 03:11:00,VALID,916.706,VALID,0,VALID,99.8502,VALID,0.339617,VALID,18.9274,VALID,12,VALID,0.27207,
2003-04-24, 03:12:01,VALID,916.708,VALID,0,VALID,99.8693,VALID,0.339617,VALID,18.9655,VALID,24,VALID,0.351792,
2003-04-24, 03:13:01,VALID,916.714,VALID,0,VALID,99.8629,VALID,0.305655,VALID,18.9727,VALID,39,VALID,0.130273,
2003-04-24, 03:14:01,VALID,916.698,VALID,0,VALID,99.8413,VALID,0.254712,VALID,18.9274,VALID,34,VALID,0.469952,
2003-04-24, 03:15:00,VALID,916.702,VALID,0,VALID,99.8349,VALID,0.288674,VALID,18.8986,VALID,31,VALID,0.389186,
2003-04-24, 03:16:00,VALID,916.703,VALID,0,VALID,99.8057,VALID,0.288674,VALID,18.8792,VALID,31,VALID,0.332854,
2003-04-24, 03:17:00,VALID,916.694,VALID,0,VALID,99.8057,VALID,0.322636,VALID,18.8921,VALID,31,VALID,0.236523,
2003-04-24, 03:18:01,VALID,916.685,VALID,0,VALID,99.821,VALID,0.254712,VALID,18.8919,VALID,31,VALID,0.304102,
2003-04-24, 03:19:01,VALID,916.669,VALID,0,VALID,99.8286,VALID,0.254712,VALID,18.8949,VALID,31,VALID,0.528245,
2003-04-24, 03:20:01,VALID,916.657,VALID,0,VALID,99.8438,VALID,0.373578,VALID,18.9207,VALID,31,VALID,0.35074,
2003-04-24, 03:21:01,VALID,916.646,VALID,0,VALID,99.8553,VALID,0.339617,VALID,18.9466,VALID,24,VALID,0.455929,
2003-04-24, 03:22:01,VALID,916.631,VALID,0,VALID,99.8604,VALID,0.237732,VALID,18.9598,VALID,16,VALID,0.46274,
2003-04-24, 03:23:01,VALID,916.653,VALID,0,VALID,99.8655,VALID,0.271693,VALID,18.9725,VALID,16,VALID,0.428421,
2003-04-24, 03:24:01,VALID,916.665,VALID,0,VALID,99.8616,VALID,0.356597,VALID,18.9787,VALID,16,VALID,0.188702,
2003-04-24, 03:25:01,VALID,916.665,VALID,0,VALID,99.8693,VALID,0.305655,VALID,18.9914,VALID,15,VALID,0.228082,
2003-04-24, 03:26:01,VALID,916.667,VALID,0,VALID,99.8795,VALID,0.339617,VALID,19.0145,VALID,15,VALID,0,
2003-04-24, 03:27:00,VALID,916.657,VALID,0,VALID,99.896,VALID,0.322636,VALID,19.0113,VALID,14,VALID,0,
2003-04-24, 03:28:01,VALID,916.648,VALID,0,VALID,99.896,VALID,0.305655,VALID,19.0406,VALID,15,VALID,0,
2003-04-24, 03:29:01,VALID,916.634,VALID,0,VALID,99.9036,VALID,0.322636,VALID,19.0695,VALID,15,VALID,0.057492,
2003-04-24, 03:30:01,VALID,916.625,VALID,0,VALID,99.9112,VALID,0.356597,VALID,19.0759,VALID,14,VALID,0,
2003-04-24, 03:31:01,VALID,916.601,VALID,0,VALID,99.9201,VALID,0.339617,VALID,19.0983,VALID,15,VALID,0,
2003-04-24, 03:32:01,VALID,916.582,VALID,0,VALID,99.9214,VALID,0.356597,VALID,19.1147,VALID,15,VALID,0,
2003-04-24, 03:33:01,VALID,916.57,VALID,0,VALID,99.9138,VALID,0.305655,VALID,19.1373,VALID,15,VALID,0.333193,
2003-04-24, 03:34:01,VALID,916.567,VALID,0,VALID,99.924,VALID,0.322636,VALID,19.147,VALID,17,VALID,0.493164,
2003-04-24, 03:35:01,VALID,916.577,VALID,0,VALID,99.924,VALID,0.288674,VALID,19.1563,VALID,19,VALID,0.655248,
2003-04-24, 03:36:01,VALID,916.592,VALID,0,VALID,99.9252,VALID,0.271693,VALID,19.16,VALID,19,VALID,0.651933,